DW7754 Weather Reports


time (UTC)temp
C
wind
direction
speed
KPH
gust
KPH
rain 1hr
cm
rain 24hr
cm
rain mn
cm
humidity
%
barometer
mb
20260507134536 10 279 0.0 11.3 0.00 0.00 0.00 61 1015.6
20260507133032 8 294 0.0 3.2 0.00 0.00 0.00 63 1015.7
20260507131527 8 291 0.0 3.2 0.00 0.00 0.00 67 1015.8
20260507124521 6 267 0.0 0.0 0.00 0.00 0.00 84 1015.7
20260507123019 5 295 0.0 0.0 0.00 0.00 0.00 89 1015.6
20260507121513 4 321 0.0 0.0 0.00 0.00 0.00 90 1015.4
20260507120009 3 321 0.0 0.0 0.00 0.00 0.00 91 1015.3
20260507114509 3 321 0.0 0.0 0.00 0.00 0.00 91 1015.2
20260507113019 2 321 0.0 0.0 0.00 0.00 0.00 91 1015.1
20260507111503 2 321 0.0 0.0 0.00 0.00 0.00 89 1015.1
20260507110100 2 321 0.0 0.0 0.00 0.00 0.00 88 1014.9
20260507104557 2 321 0.0 0.0 0.00 0.00 0.00 87 1015.0
20260507103057 2 321 0.0 0.0 0.00 0.00 0.00 85 1015.1
20260507101555 2 321 0.0 0.0 0.00 0.00 0.00 85 1014.9
20260507100057 3 321 0.0 0.0 0.00 0.00 0.00 84 1014.9
20260507094550 3 321 0.0 0.0 0.00 0.00 0.00 83 1014.9
20260507093051 3 321 0.0 0.0 0.00 0.00 0.00 82 1014.7
20260507091650 3 321 0.0 0.0 0.00 0.00 0.00 81 1014.8
20260507090047 4 321 0.0 0.0 0.00 0.00 0.00 81 1014.9
20260507084547 4 321 0.0 0.0 0.00 0.00 0.00 79 1014.8
20260507083041 5 321 0.0 0.0 0.00 0.00 0.00 77 1014.7
20260507081546 5 321 0.0 0.0 0.00 0.00 0.00 76 1014.7
20260507080043 5 321 0.0 0.0 0.00 0.00 0.00 75 1014.7
20260507074537 6 321 0.0 0.0 0.00 0.05 0.00 74 1014.8
20260507073035 6 321 0.0 0.0 0.00 0.05 0.00 73 1014.8
20260507071533 6 321 0.0 0.0 0.00 0.05 0.00 73 1014.8
20260507070033 6 312 0.0 0.0 0.00 0.05 0.00 73 1014.8
20260507064531 6 303 0.0 0.0 0.00 0.05 0.00 73 1014.8
20260507063032 6 304 0.0 0.0 0.00 0.05 0.00 73 1014.9
20260507061530 6 304 0.0 0.0 0.00 0.05 0.00 74 1015.0
20260507060028 6 300 0.0 0.0 0.00 0.05 0.00 76 1014.9
20260507054527 6 312 0.0 0.0 0.00 0.13 0.00 79 1014.9
20260507053025 6 304 0.0 0.0 0.00 0.13 0.00 83 1014.8
20260507051523 6 304 0.0 0.0 0.00 0.13 0.00 84 1014.7
20260507050027 6 304 0.0 0.0 0.00 0.13 0.00 84 1014.5
20260507044521 6 304 0.0 0.0 0.00 0.15 0.00 84 1014.6
20260507043025 6 304 0.0 0.0 0.00 0.15 0.00 83 1014.5
20260507041517 6 304 0.0 0.0 0.00 0.15 0.00 83 1014.6
20260507040014 7 304 0.0 0.0 0.00 0.15 0.00 82 1014.6
20260507034521 7 304 0.0 0.0 0.00 0.41 0.15 79 1014.6
20260507033015 7 304 0.0 0.0 0.00 0.41 0.15 77 1014.5
20260507031511 8 304 0.0 0.0 0.00 0.41 0.15 74 1014.5
20260507030010 8 304 0.0 0.0 0.00 0.41 0.15 72 1014.4
20260507024514 9 304 0.0 0.0 0.00 0.71 0.15 70 1014.3
20260507023009 9 304 0.0 0.0 0.00 0.71 0.15 69 1014.3
20260507021510 10 304 0.0 0.0 0.00 0.71 0.15 68 1014.2
20260507020008 10 304 0.0 0.0 0.00 0.71 0.15 67 1014.2
20260507014505 10 302 0.0 0.0 0.00 0.79 0.15 67 1014.1
20260507013005 10 304 0.0 0.0 0.00 0.79 0.15 66 1014.1
20260507011504 11 304 0.0 0.0 0.00 0.79 0.15 64 1013.9
20260507010004 11 304 0.0 0.0 0.00 0.79 0.15 62 1013.7
20260507004607 11 304 0.0 0.0 0.00 0.94 0.15 59 1013.6
20260507003116 12 294 0.0 6.4 0.00 0.94 0.15 57 1013.3
20260507001615 12 292 0.0 11.3 0.00 0.94 0.15 54 1013.2
20260506234558 13 336 0.0 12.9 0.00 1.19 0.15 55 1013.0
20260506233058 13 306 9.7 20.9 0.00 1.19 0.15 53 1013.0
20260506230109 13 321 1.6 12.9 0.00 1.19 0.15 61 1013.2
20260506224554 13 304 1.6 14.5 0.00 1.40 0.15 60 1013.1
20260506223055 13 279 0.0 9.7 0.00 1.40 0.15 58 1013.3
20260506221606 13 309 3.2 11.3 0.00 1.40 0.15 58 1013.3
20260506220054 13 311 0.0 12.9 0.00 1.40 0.15 58 1013.4
20260506214555 13 303 1.6 11.3 0.00 1.42 0.15 58 1013.4
20260506213052 13 318 4.8 12.9 0.00 1.42 0.15 56 1013.2
20260506211551 13 286 0.0 9.7 0.00 1.42 0.15 57 1013.1
20260506210057 13 302 0.0 12.9 0.00 1.42 0.15 58 1013.0
20260506204553 13 263 0.0 9.7 0.00 1.50 0.15 58 1013.1
20260506203100 13 290 0.0 8.0 0.00 1.50 0.15 57 1012.9
20260506201549 13 311 1.6 12.9 0.00 1.50 0.15 55 1013.1
20260506200054 13 248 0.0 4.8 0.00 1.50 0.15 55 1013.1
20260506194549 13 289 0.0 9.7 0.00 1.70 0.15 54 1013.2
20260506193051 13 248 0.0 8.0 0.00 1.70 0.15 56 1013.2
20260506191545 13 277 0.0 11.3 0.00 1.70 0.15 58 1013.1
20260506190045 13 293 0.0 4.8 0.00 1.70 0.15 60 1013.1
20260506184547 13 242 0.0 3.2 0.00 1.96 0.15 59 1013.1
20260506183142 13 350 0.0 8.0 0.00 1.96 0.15 59 1013.1
20260506181548 13 311 0.0 0.0 0.00 1.96 0.15 64 1013.1
20260506180040 12 300 0.0 0.0 0.00 1.96 0.15 62 1013.2
20260506174540 13 292 0.0 0.0 0.00 2.08 0.15 62 1013.3
20260506173044 13 250 0.0 0.0 0.00 2.08 0.15 63 1013.1
20260506171539 12 250 0.0 0.0 0.00 2.08 0.15 62 1013.2
20260506170045 13 292 0.0 0.0 0.00 2.08 0.15 63 1013.5
20260506164551 13 294 0.0 0.0 0.00 2.08 0.15 64 1013.4
20260506163037 13 302 0.0 1.6 0.00 2.08 0.15 65 1013.2
20260506161533 12 53 0.0 3.2 0.00 2.08 0.15 67 1013.0
20260506160035 12 351 0.0 0.0 0.00 2.08 0.15 64 1013.4
20260506154529 12 319 0.0 0.0 0.00 2.08 0.15 68 1013.2
20260506153028 12 312 0.0 1.6 0.00 2.08 0.15 67 1013.0
20260506151527 12 309 0.0 6.4 0.00 2.08 0.15 66 1013.2
20260506150024 12 340 0.0 11.3 0.00 2.08 0.15 67 1013.0
20260506144621 11 49 0.0 12.9 0.00 2.08 0.15 66 1012.8
20260506143020 11 355 0.0 3.2 0.00 2.08 0.15 77 1012.7
20260506141526 11 286 0.0 8.0 0.00 2.08 0.15 81 1012.5
20260506140013 10 273 0.0 0.0 0.00 2.08 0.15 87 1012.5